Flag for France Weather past 2 weeks in Bordeaux, France

Now
61 °F

Clear.


Feels Like: 61 °F
Forecast: 57 / 80 °F
Wind: 2 mph from North

Location: Bordeaux / Merignac

Current Time: Aug 31, 2014 at 1:26:02 AM

Latest Report: Aug 31, 2014 at 1:00 AM


Visibility: N/A

Pressure: 30.15 "Hg

Humidity: 94%

Dew point: 59 °F

Location of BordeauxLocation

Historic Weather in Bordeaux — Graph

°F

Bordeaux temperature yesterday

Maximum temperature yesterday: 75 °F (at 3:30 PM)
Minimum temperature yesterday: 55 °F (at 4:00 AM)
Average temperature yesterday: 65 °F

Past Weeks' High & Low Weather Summary

 TemperatureHumidityPressure
High81 °F (Aug 25, 3:00 PM)100% (Aug 24, 8:30 AM)30.27 "Hg (Aug 24, 8:30 AM)
Low50 °F (Aug 21, 5:30 AM)37% (Aug 25, 5:00 PM)29.83 "Hg (Aug 26, 3:30 AM)
Average66 °F72%30.07 "Hg
* Reported Midnight between Aug 15 and Aug 16 — Aug 31 12:30 AM, Bordeaux, Weather by CustomWeather, © 2014

Note: Actual official high and low records may vary slightly from our data, if they occured in-between our weather recording intervals... More about our weather records

Advertising

Bordeaux weather history for previous 24 hours

 ConditionsComfort  
Time TempWeatherWind HumidityBarometerVisibility
12:30 AM
Aug 31
63 °FClear.3 mph83%30.15 "HgN/A
12:00 AM63 °FClear.3 mph88%30.15 "HgN/A
11:30 PM
Aug 30
63 °FClear.6 mph88%30.15 "HgN/A
10:30 PM64 °FClear.9 mph78%30.15 "HgN/A
10:00 PM66 °FClear.8 mph73%30.15 "HgN/A
9:30 PM68 °FClear.9 mph69%30.15 "HgN/A
9:00 PM70 °FClear.7 mph64%30.15 "HgN/A
8:30 PM70 °FClear.8 mph64%30.12 "HgN/A
8:00 PM72 °FClear.9 mph61%30.12 "HgN/A
7:30 PM73 °FClear.8 mph53%30.12 "HgN/A
7:00 PM75 °FClear.9 mph47%30.12 "HgN/A
6:30 PM75 °FClear.8 mph44%30.09 "HgN/A
6:00 PM75 °FClear.9 mph44%30.12 "HgN/A
5:30 PM75 °FClear.7 mph44%30.12 "HgN/A
5:00 PM75 °FClear.9 mph47%30.12 "HgN/A
4:30 PM75 °FClear.8 mph41%30.12 "HgN/A
4:00 PM75 °FClear.7 mph44%30.12 "HgN/A
3:30 PM75 °FClear.8 mph47%30.12 "HgN/A
3:00 PM73 °FClear.5 mph50%30.12 "HgN/A
2:30 PM73 °FClear.8 mph50%30.15 "HgN/A
2:00 PM73 °FPassing clouds.7 mph53%30.15 "HgN/A
1:30 PM72 °FPassing clouds.6 mph53%30.15 "HgN/A
1:00 PM72 °FClear.3 mph57%30.18 "HgN/A
12:30 PM70 °FClear.5 mph60%30.18 "HgN/A
12:00 PM68 °FClear.7 mph60%30.18 "HgN/A
11:30 AM68 °FClear.8 mph60%30.18 "HgN/A
11:00 AM68 °FClear.7 mph60%30.18 "HgN/A
10:30 AM64 °FClear.6 mph73%30.18 "HgN/A
10:00 AM63 °FClear.6 mph77%30.18 "HgN/A
9:30 AM63 °FClear.3 mph83%30.18 "HgN/A
9:00 AM59 °FClear.3 mph88%30.18 "HgN/A
8:30 AM57 °FClear.2 mph94%30.15 "HgN/A
8:00 AM57 °FClear.2 mph94%30.15 "HgN/A
7:30 AM55 °FLight fog.No wind100%30.15 "HgN/A
7:00 AM57 °FClear.No wind94%30.15 "HgN/A
6:30 AM57 °FClear.2 mph94%30.15 "HgN/A
6:00 AM55 °FClear.1 mph100%30.15 "HgN/A
5:30 AM55 °FClear.No wind94%30.15 "HgN/A
5:00 AM55 °FClear.No wind94%30.15 "HgN/A
4:30 AM55 °FClear.2 mph94%30.15 "HgN/A
4:00 AM55 °FLight fog.No wind94%30.15 "HgN/A
3:30 AM57 °FLight fog.No wind88%30.15 "HgN/A
3:00 AM57 °FLight fog.No wind94%30.18 "HgN/A
2:30 AM57 °FLight fog.1 mph94%30.18 "HgN/A
2:00 AM59 °FClear.1 mph88%30.18 "HgN/A
1:30 AM59 °FClear.2 mph88%30.18 "HgN/A
1:00 AM61 °FClear.3 mph83%30.18 "HgN/A
Weather by CustomWeather, © 2014

See weather overviewHow to use our weather pages